Location: Tierra del Sol
(32.6128°N, 116.3319°W)
Time: 19:30:52
(UTC-08:00)

Vanguard 2 - Visible Passes

Search period start: 12 December 2017 00:00
Search period end: 22 December 2017 00:00
Orbit: 553 x 2939 km, 32.9° (Epoch: 12 December)

Date Brightness Start Highest point End Pass type
(mag) Time Alt. Az. Time Alt. Az. Time Alt. Az.
12 Dec 8.6 19:06:19 10° W 19:08:40 30° W 19:08:40 30° W visible
13 Dec 7.2 17:14:54 10° W 17:20:27 86° N 17:24:31 10° E visible
13 Dec 9.4 19:24:33 10° W 19:25:57 19° W 19:25:57 19° W visible
14 Dec 7.1 17:33:12 10° W 17:38:36 89° S 17:41:50 16° E visible
14 Dec 10.0 19:42:51 10° W 19:43:16 12° W 19:43:16 12° W visible
15 Dec 7.1 17:51:29 10° W 17:56:42 77° SSW 17:59:12 23° ESE visible
16 Dec 7.4 18:09:45 10° W 18:14:45 59° SSW 18:16:37 30° SE visible
17 Dec 8.0 18:28:05 10° W 18:32:44 42° SSW 18:34:04 31° SSE visible
18 Dec 8.6 18:46:32 10° W 18:50:38 28° SSW 18:51:36 25° S visible
19 Dec 9.3 19:05:20 10° WSW 19:08:27 18° SSW 19:09:13 17° SSW visible
20 Dec 8.2 17:12:22 10° W 17:18:50 56° SSW 17:23:11 10° ESE visible
20 Dec 9.9 19:25:37 10° SW 19:26:12 10° SW 19:26:47 10° SSW visible
21 Dec 8.8 17:30:48 10° W 17:36:45 40° SSW 17:40:54 10° SE visible
